This demonstration page uses our WeatherBlox Daily Observations layout. Learn more.

Left ArrowRight Arrow

34.16533, -84.80231

Hourly Observations for April 6, 2020

Temp ( °F °C ) Dew Point ( °F °C ) Humidity (%) Winds ( mph kmh ) Pressure ( in mb ) Visibility ( mi km ) Precip ( " mm )
12:53 am 00:53 Clear 56 13.3 50 10 81 81 Calm 30.04 1017 10 16 0.00 0.00
1:53 am 01:53 Clear 56 13.3 51 10.6 84 84 Calm 30.04 1017 10 16 0.00 0.00
2:53 am 02:53 Clear 55 12.8 50 10 83 83 Calm 30.04 1017 10 16 0.00 0.00
3:53 am 03:53 Clear 52 11.1 49 9.4 89 89 Calm 30.04 1017 10 16 0.00 0.00
4:53 am 04:53 Clear 50 10 48 8.9 93 93 Calm 30.04 1017 9 14 0.00 0.00
5:53 am 05:53 Clear 50 10 48 8.9 93 93 Calm 30.04 1017 10 16 0.00 0.00
6:53 am 06:53 Clear 50 10 47 8.3 89 89 Calm 30.06 1018 9 14 0.00 0.00
7:53 am 07:53 Sunny 50 10 48 8.9 93 93 Calm 30.09 1019 8 13 0.00 0.00
8:53 am 08:53 Sunny 58 14.4 52 11.1 81 81 Calm 30.11 1020 10 16 0.00 0.00
9:53 am 09:53 Sunny 65 18.3 54 12.2 68 68 Calm 30.11 1020 10 16 0.00 0.00
11:53 am 11:53 Sunny 75 23.9 55 12.8 50 50 Calm 30.10 1019 10 16 0.00 0.00
12:53 pm 12:53 Sunny 79 26.1 54 12.2 42 42 VRB 6 9 30.08 1019 10 16 0.00 0.00
1:53 pm 13:53 Sunny 82 27.8 53 11.7 37 37 VRB 3 6 30.06 1018 10 16 0.00 0.00
2:53 pm 14:53 Sunny 83 28.3 51 10.6 33 33 VRB 3 6 30.04 1017 10 16 0.00 0.00
3:53 pm 15:53 Mostly Sunny 82 27.8 49 9.4 32 32 VRB 3 6 30.01 1016 10 16 0.00 0.00
4:53 pm 16:53 Sunny 84 28.9 48 8.9 29 29 VRB 5 7 29.99 1016 10 16 0.00 0.00
5:53 pm 17:53 Sunny 83 28.3 49 9.4 31 31 VRB 5 7 29.99 1016 10 16 0.00 0.00
6:53 pm 18:53 Mostly Cloudy 79 26.1 53 11.7 41 41 Calm 30.00 1016 10 16 0.00 0.00
7:53 pm 19:53 Sunny 76 24.4 53 11.7 45 45 S 5 7 30.00 1016 10 16 0.00 0.00
8:53 pm 20:53 Clear 71 21.7 54 12.2 55 55 Calm 30.01 1016 10 16 0.00 0.00
9:53 pm 21:53 Clear 69 20.6 55 12.8 61 61 Calm 30.03 1017 10 16 0.00 0.00
10:53 pm 22:53 Clear 69 20.6 54 12.2 59 59 SSW 3 6 30.03 1017 10 16 0.00 0.00
11:53 pm 23:53 Mostly Cloudy 66 18.9 56 13.3 70 70 Calm 30.02 1017 10 16 0.00 0.00

Powered by AerisWeather